Time,TemperatureF,DewpointF,PressureIn,WindDirection,WindDirectionDegrees,WindSpeedMPH,WindSpeedGustMPH,Humidity,HourlyPrecipIn,Conditions,Clouds,dailyrainin,SoftwareType,DateUTC
2013-03-26 11:52:00,33.5,31.2,30.04,NNW,329,2.0,2.0,91,0.21,,---,0.03,VWS V14.01,2013-03-26 15:52:00,
2013-03-26 11:57:00,33.5,31.2,30.05,NNW,342,4.0,4.0,91,0.00,,---,0.03,VWS V14.01,2013-03-26 15:57:00,
2013-03-26 12:00:00,33.5,31.2,30.05,NNW,342,4.0,8.0,91,0.21,,---,0.03,VWS V14.01,2013-03-26 16:00:00,
2013-03-26 12:03:00,33.4,31.1,30.05,NW,321,2.0,6.0,91,0.00,,---,0.03,VWS V14.01,2013-03-26 16:03:00,
2013-03-26 12:08:00,33.5,31.2,30.05,NW,306,1.0,6.0,91,0.00,,---,0.03,VWS V14.01,2013-03-26 16:08:00,
2013-03-26 12:13:00,33.5,31.2,30.05,WNW,296,4.0,6.0,91,0.00,,---,0.03,VWS V14.01,2013-03-26 16:13:00,
2013-03-26 12:18:00,33.8,31.5,30.05,NW,320,2.0,9.0,91,0.00,,---,0.03,VWS V14.01,2013-03-26 16:18:00,
2013-03-26 12:23:00,34.0,31.4,30.05,NW,326,1.0,9.0,90,0.00,,---,0.03,VWS V14.01,2013-03-26 16:23:00,
2013-03-26 12:28:00,34.0,31.4,30.05,NW,326,2.0,4.0,90,0.00,,---,0.03,VWS V14.01,2013-03-26 16:28:00,
2013-03-26 12:30:00,34.1,31.5,30.05,NW,326,4.0,9.0,90,0.00,,---,0.03,VWS V14.01,2013-03-26 16:30:00,
2013-03-26 12:33:00,34.0,31.4,30.05,NNW,335,6.0,7.0,90,0.00,,---,0.03,VWS V14.01,2013-03-26 16:33:00,
2013-03-26 12:38:00,34.1,31.5,30.05,NW,319,2.0,7.0,90,0.00,,---,0.03,VWS V14.01,2013-03-26 16:38:00,
2013-03-26 12:43:00,34.1,31.5,30.05,NW,314,5.0,7.0,90,0.00,,---,0.03,VWS V14.01,2013-03-26 16:43:00,
2013-03-26 12:48:00,33.9,31.3,30.05,NW,306,2.0,7.0,90,0.00,,---,0.03,VWS V14.01,2013-03-26 16:48:00,
2013-03-26 12:53:00,34.0,31.4,30.05,NNW,331,2.0,7.0,90,0.00,,---,0.03,VWS V14.01,2013-03-26 16:53:00,
2013-03-26 12:58:00,34.2,31.9,30.05,NNW,331,2.0,2.0,91,0.00,,---,0.03,VWS V14.01,2013-03-26 16:58:00,
2013-03-26 13:00:00,34.2,31.9,30.05,NNW,331,0.0,7.0,91,0.00,,---,0.03,VWS V14.01,2013-03-26 17:00:00,
2013-03-26 13:03:00,34.3,32.0,30.05,NW,321,2.0,6.0,91,0.00,,---,0.03,VWS V14.01,2013-03-26 17:03:00,
2013-03-26 13:08:00,34.3,31.4,30.05,WNW,303,2.0,6.0,89,0.00,,---,0.03,VWS V14.01,2013-03-26 17:08:00,
2013-03-26 13:13:00,34.4,31.8,30.05,NNW,327,1.0,6.0,90,0.00,,---,0.03,VWS V14.01,2013-03-26 17:13:00,
2013-03-26 13:18:00,34.5,31.9,30.05,NW,309,4.0,7.0,90,0.00,,---,0.03,VWS V14.01,2013-03-26 17:18:00,
2013-03-26 13:23:00,34.5,31.6,30.05,NW,305,1.0,8.0,89,0.00,,---,0.03,VWS V14.01,2013-03-26 17:23:00,
2013-03-26 13:28:00,34.4,31.5,30.05,NW,311,2.0,8.0,89,0.00,,---,0.03,VWS V14.01,2013-03-26 17:28:00,
2013-03-26 13:30:00,34.4,31.5,30.05,NNW,334,4.0,8.0,89,0.00,,---,0.03,VWS V14.01,2013-03-26 17:30:00,
2013-03-26 13:33:00,34.6,31.7,30.05,NW,309,4.0,8.0,89,0.00,,---,0.03,VWS V14.01,2013-03-26 17:33:00,
2013-03-26 13:38:00,34.6,31.7,30.05,NW,307,2.0,8.0,89,0.00,,---,0.03,VWS V14.01,2013-03-26 17:38:00,
2013-03-26 13:43:00,34.6,31.7,30.05,NW,311,1.0,8.0,89,0.00,,---,0.03,VWS V14.01,2013-03-26 17:43:00,
2013-03-26 13:48:00,34.7,31.8,30.06,NW,305,5.0,8.0,89,0.00,,---,0.03,VWS V14.01,2013-03-26 17:48:00,
2013-03-26 13:53:00,34.6,31.4,30.06,WNW,288,4.0,9.0,88,0.00,,---,0.03,VWS V14.01,2013-03-26 17:53:00,
2013-03-26 13:58:00,34.6,31.4,30.06,NW,314,0.0,4.0,88,0.00,,---,0.03,VWS V14.01,2013-03-26 17:58:00,
2013-03-26 14:00:00,34.6,31.4,30.06,WNW,282,2.0,9.0,88,0.00,,---,0.03,VWS V14.01,2013-03-26 18:00:00,
2013-03-26 14:03:00,34.9,31.7,30.06,NW,309,2.0,8.0,88,0.00,,---,0.03,VWS V14.01,2013-03-26 18:03:00,
2013-03-26 14:08:00,35.2,32.0,30.05,NW,326,6.0,8.0,88,0.00,,---,0.03,VWS V14.01,2013-03-26 18:08:00,
2013-03-26 14:13:00,35.3,31.8,30.05,NW,308,5.0,9.0,87,0.00,,---,0.03,VWS V14.01,2013-03-26 18:13:00,
2013-03-26 14:18:00,35.3,31.5,30.05,NW,306,1.0,12.0,86,0.00,,---,0.03,VWS V14.01,2013-03-26 18:18:00,
2013-03-26 14:23:00,35.5,31.7,30.06,NW,305,1.0,12.0,86,0.00,,---,0.03,VWS V14.01,2013-03-26 18:23:00,
2013-03-26 14:28:00,35.6,31.8,30.06,WNW,296,2.0,6.0,86,0.00,,---,0.03,VWS V14.01,2013-03-26 18:28:00,
2013-03-26 14:30:00,35.6,31.8,30.06,WNW,293,6.0,12.0,86,0.00,,---,0.03,VWS V14.01,2013-03-26 18:30:00,
2013-03-26 14:33:00,35.7,31.9,30.06,ENE,78,2.0,8.0,86,0.00,,---,0.03,VWS V14.01,2013-03-26 18:33:00,
2013-03-26 14:38:00,35.8,31.7,30.06,NW,314,0.0,9.0,85,0.00,,---,0.03,VWS V14.01,2013-03-26 18:38:00,
2013-03-26 14:43:00,36.0,31.9,30.06,WSW,257,1.0,9.0,85,0.00,,---,0.03,VWS V14.01,2013-03-26 18:43:00,
2013-03-26 14:48:00,36.1,31.7,30.06,WNW,286,4.0,9.0,84,0.00,,---,0.03,VWS V14.01,2013-03-26 18:48:00,
2013-03-26 14:53:00,36.3,31.9,30.06,NW,315,4.0,9.0,84,0.00,,---,0.03,VWS V14.01,2013-03-26 18:53:00,
2013-03-26 14:58:00,36.4,32.0,30.05,NW,320,5.0,7.0,84,0.00,,---,0.03,VWS V14.01,2013-03-26 18:58:00,
2013-03-26 15:00:00,36.4,32.0,30.06,WNW,297,1.0,9.0,84,0.00,,---,0.03,VWS V14.01,2013-03-26 19:00:00,
2013-03-26 15:03:00,36.7,32.3,30.05,NNW,329,5.0,7.0,84,0.00,,---,0.03,VWS V14.01,2013-03-26 19:03:00,
2013-03-26 15:09:00,36.8,32.1,30.05,NNW,336,1.0,7.0,83,0.00,,---,0.03,VWS V14.01,2013-03-26 19:09:00,
2013-03-26 15:14:00,36.9,32.2,30.05,West,278,2.0,7.0,83,0.00,,---,0.03,VWS V14.01,2013-03-26 19:14:00,
2013-03-26 15:19:00,36.7,31.7,30.05,NW,309,4.0,7.0,82,0.00,,---,0.03,VWS V14.01,2013-03-26 19:19:00,
2013-03-26 15:24:00,36.7,31.7,30.05,NW,326,8.0,9.0,82,0.00,,---,0.03,VWS V14.01,2013-03-26 19:24:00,
2013-03-26 15:29:00,36.8,31.8,30.05,West,277,2.0,6.0,82,0.00,,---,0.03,VWS V14.01,2013-03-26 19:29:00,
2013-03-26 15:30:00,36.7,31.7,30.05,NW,324,5.0,9.0,82,0.00,,---,0.03,VWS V14.01,2013-03-26 19:30:00,
2013-03-26 15:34:00,36.9,31.6,30.05,West,269,4.0,8.0,81,0.00,,---,0.03,VWS V14.01,2013-03-26 19:34:00,
2013-03-26 15:39:00,37.0,31.7,30.05,NW,316,4.0,8.0,81,0.00,,---,0.03,VWS V14.01,2013-03-26 19:39:00,
2013-03-26 15:44:00,37.0,31.7,30.05,NW,321,0.0,8.0,81,0.00,,---,0.03,VWS V14.01,2013-03-26 19:44:00,
2013-03-26 15:49:00,37.1,31.8,30.05,WNW,301,2.0,8.0,81,0.00,,---,0.03,VWS V14.01,2013-03-26 19:49:00,
2013-03-26 15:54:00,37.4,31.8,30.05,WNW,303,1.0,8.0,80,0.00,,---,0.03,VWS V14.01,2013-03-26 19:54:00,
2013-03-26 15:59:00,37.6,32.0,30.05,NW,320,2.0,5.0,80,0.00,,---,0.03,VWS V14.01,2013-03-26 19:59:00,
2013-03-26 16:00:00,37.5,31.9,30.05,NW,326,4.0,8.0,80,0.00,,---,0.03,VWS V14.01,2013-03-26 20:00:00,
2013-03-26 16:04:00,37.8,32.2,30.05,WNW,301,4.0,9.0,80,0.00,,---,0.03,VWS V14.01,2013-03-26 20:04:00,
2013-03-26 16:09:00,37.7,31.8,30.05,NW,326,5.0,10.0,79,0.00,,---,0.03,VWS V14.01,2013-03-26 20:09:00,
2013-03-26 16:14:00,37.7,31.8,30.05,NW,323,8.0,10.0,79,0.00,,---,0.03,VWS V14.01,2013-03-26 20:14:00,
2013-03-26 16:19:00,37.8,31.6,30.05,NNW,339,6.0,10.0,78,0.00,,---,0.03,VWS V14.01,2013-03-26 20:19:00,
2013-03-26 16:24:00,37.9,31.7,30.05,NNW,343,6.0,10.0,78,0.00,,---,0.03,VWS V14.01,2013-03-26 20:24:00,
2013-03-26 16:29:00,37.8,31.6,30.05,NW,308,2.0,8.0,78,0.00,,---,0.03,VWS V14.01,2013-03-26 20:29:00,
2013-03-26 16:30:00,37.9,31.7,30.05,NW,319,5.0,10.0,78,0.00,,---,0.03,VWS V14.01,2013-03-26 20:30:00,
2013-03-26 16:34:00,37.9,31.7,30.05,NNW,348,6.0,11.0,78,0.00,,---,0.03,VWS V14.01,2013-03-26 20:34:00,
2013-03-26 16:39:00,38.0,31.8,30.05,NNW,331,4.0,11.0,78,0.00,,---,0.03,VWS V14.01,2013-03-26 20:39:00,
2013-03-26 16:44:00,38.1,31.5,30.05,WNW,298,2.0,11.0,77,0.00,,---,0.03,VWS V14.01,2013-03-26 20:44:00,
2013-03-26 16:49:00,38.1,31.5,30.05,NNW,330,7.0,11.0,77,0.00,,---,0.03,VWS V14.01,2013-03-26 20:49:00,
2013-03-26 16:54:00,38.1,31.5,30.06,NW,310,6.0,12.0,77,0.00,,---,0.03,VWS V14.01,2013-03-26 20:54:00,
2013-03-26 16:59:00,38.0,31.1,30.06,North,353,7.0,13.0,76,0.00,,---,0.03,VWS V14.01,2013-03-26 20:59:00,
2013-03-26 17:00:00,38.1,31.2,30.06,NNW,339,7.0,13.0,76,0.00,,---,0.03,VWS V14.01,2013-03-26 21:00:00,
2013-03-26 17:04:00,38.1,31.5,30.06,NNW,333,2.0,13.0,77,0.00,,---,0.03,VWS V14.01,2013-03-26 21:04:00,
2013-03-26 17:09:00,38.0,31.1,30.06,NW,316,4.0,13.0,76,0.00,,---,0.03,VWS V14.01,2013-03-26 21:09:00,
2013-03-26 17:14:00,38.1,31.5,30.06,NW,309,4.0,13.0,77,0.00,,---,0.03,VWS V14.01,2013-03-26 21:14:00,
2013-03-26 17:19:00,38.1,31.2,30.06,North,355,4.0,13.0,76,0.00,,---,0.03,VWS V14.01,2013-03-26 21:19:00,
2013-03-26 17:24:00,38.1,31.5,30.06,NW,325,4.0,13.0,77,0.00,,---,0.03,VWS V14.01,2013-03-26 21:24:00,
2013-03-26 17:29:00,38.2,31.6,30.06,NNW,340,1.0,5.0,77,0.00,,---,0.03,VWS V14.01,2013-03-26 21:29:00,
2013-03-26 17:30:00,38.1,31.5,30.06,NW,319,4.0,13.0,77,0.00,,---,0.03,VWS V14.01,2013-03-26 21:30:00,
2013-03-26 17:34:00,38.1,31.2,30.06,WNW,289,4.0,5.0,76,0.00,,---,0.03,VWS V14.01,2013-03-26 21:34:00,
2013-03-26 17:39:00,38.1,31.2,30.06,NW,323,1.0,6.0,76,0.00,,---,0.03,VWS V14.01,2013-03-26 21:39:00,
2013-03-26 17:44:00,38.3,31.4,30.06,NNW,334,4.0,6.0,76,0.00,,---,0.03,VWS V14.01,2013-03-26 21:44:00,
2013-03-26 17:49:00,38.5,31.3,30.06,NNW,336,1.0,6.0,75,0.00,,---,0.03,VWS V14.01,2013-03-26 21:49:00,
2013-03-26 17:54:00,38.7,31.5,30.06,WNW,303,0.0,6.0,75,0.00,,---,0.03,VWS V14.01,2013-03-26 21:54:00,
2013-03-26 17:59:00,38.6,31.0,30.06,NW,326,1.0,5.0,74,0.00,,---,0.03,VWS V14.01,2013-03-26 21:59:00,
2013-03-26 18:00:00,38.7,31.1,30.06,NW,307,2.0,7.0,74,0.00,,---,0.03,VWS V14.01,2013-03-26 22:00:00,
2013-03-26 18:04:00,38.6,31.4,30.06,NW,314,4.0,7.0,75,0.00,,---,0.03,VWS V14.01,2013-03-26 22:04:00,
2013-03-26 18:09:00,38.5,31.3,30.06,NW,322,6.0,8.0,75,0.00,,---,0.03,VWS V14.01,2013-03-26 22:09:00,
2013-03-26 18:14:00,38.3,31.1,30.06,NW,320,2.0,9.0,75,0.00,,---,0.03,VWS V14.01,2013-03-26 22:14:00,
2013-03-26 18:19:00,38.1,31.2,30.06,NW,318,4.0,9.0,76,0.00,,---,0.03,VWS V14.01,2013-03-26 22:19:00,
2013-03-26 18:24:00,38.0,31.4,30.06,North,2,2.0,9.0,77,0.00,,---,0.03,VWS V14.01,2013-03-26 22:24:00,
2013-03-26 18:30:00,38.1,31.2,30.06,North,360,3.0,5.0,76,0.00,,---,0.03,VWS V14.01,2013-03-26 22:30:00,
2013-03-26 18:35:00,38.2,31.0,30.07,WNW,284,2.0,8.0,75,0.00,,---,0.03,VWS V14.01,2013-03-26 22:35:00,
2013-03-26 18:40:00,38.2,31.0,30.07,WNW,300,2.0,8.0,75,0.00,,---,0.03,VWS V14.01,2013-03-26 22:40:00,
2013-03-26 18:45:00,38.0,30.8,30.07,WNW,294,4.0,8.0,75,0.00,,---,0.03,VWS V14.01,2013-03-26 22:45:00,
2013-03-26 18:50:00,37.7,30.5,30.07,NW,309,2.0,8.0,75,0.00,,---,0.03,VWS V14.01,2013-03-26 22:50:00,
2013-03-26 18:55:00,37.5,30.6,30.08,WNW,298,1.0,9.0,76,0.00,,---,0.03,VWS V14.01,2013-03-26 22:55:00,
2013-03-26 19:00:00,37.2,31.0,30.07,NNW,332,4.0,6.0,78,0.00,,---,0.03,VWS V14.01,2013-03-26 23:00:00,
2013-03-26 19:05:00,36.9,31.0,30.08,NW,322,2.0,8.0,79,0.00,,---,0.03,VWS V14.01,2013-03-26 23:05:00,
2013-03-26 19:10:00,36.5,30.9,30.08,WNW,291,4.0,8.0,80,0.00,,---,0.03,VWS V14.01,2013-03-26 23:10:00,
2013-03-26 19:15:00,36.4,31.1,30.08,WNW,294,2.0,8.0,81,0.00,,---,0.03,VWS V14.01,2013-03-26 23:15:00,
2013-03-26 19:20:00,36.3,31.0,30.08,NW,315,5.0,8.0,81,0.00,,---,0.03,VWS V14.01,2013-03-26 23:20:00,
2013-03-26 19:25:00,36.2,30.9,30.08,WNW,295,5.0,10.0,81,0.00,,---,0.03,VWS V14.01,2013-03-26 23:25:00,
2013-03-26 19:30:00,36.0,31.0,30.08,NNW,343,2.0,11.0,82,0.00,,---,0.03,VWS V14.01,2013-03-26 23:30:00,
2013-03-26 19:35:00,35.7,31.0,30.09,NNW,336,5.0,11.0,83,0.00,,---,0.03,VWS V14.01,2013-03-26 23:35:00,
2013-03-26 19:40:00,35.3,31.2,30.09,West,272,0.0,11.0,85,0.00,,---,0.03,VWS V14.01,2013-03-26 23:40:00,
2013-03-26 19:45:00,35.1,31.3,30.10,NW,323,0.0,11.0,86,0.00,,---,0.03,VWS V14.01,2013-03-26 23:45:00,
2013-03-26 19:50:00,34.7,31.5,30.10,NW,325,2.0,11.0,88,0.00,,---,0.03,VWS V14.01,2013-03-26 23:50:00,
2013-03-26 19:55:00,34.3,31.4,30.10,NNW,328,4.0,11.0,89,0.00,,---,0.03,VWS V14.01,2013-03-26 23:55:00,
2013-03-26 20:00:00,33.9,31.3,30.10,NNW,328,2.0,2.0,90,0.00,,---,0.03,VWS V14.01,2013-03-27 00:00:00,
2013-03-26 20:05:00,33.7,31.4,30.10,NNW,344,1.0,6.0,91,0.00,,---,0.03,VWS V14.01,2013-03-27 00:05:00,
2013-03-26 20:10:00,33.5,31.4,30.10,NW,311,1.0,6.0,92,0.00,,---,0.03,VWS V14.01,2013-03-27 00:10:00,
2013-03-26 20:15:00,33.4,31.3,30.10,NW,316,1.0,7.0,92,0.00,,---,0.03,VWS V14.01,2013-03-27 00:15:00,
2013-03-26 20:20:00,33.3,31.5,30.10,NW,321,2.0,7.0,93,0.00,,---,0.03,VWS V14.01,2013-03-27 00:20:00,
2013-03-26 20:25:00,33.2,31.4,30.10,NW,309,1.0,7.0,93,0.00,,---,0.03,VWS V14.01,2013-03-27 00:25:00,
2013-03-26 20:30:00,33.2,31.4,30.10,NW,308,4.0,4.0,93,0.00,,---,0.03,VWS V14.01,2013-03-27 00:30:00,
2013-03-26 20:35:00,33.1,31.6,30.10,NW,310,0.0,4.0,94,0.00,,---,0.03,VWS V14.01,2013-03-27 00:35:00,
2013-03-26 20:40:00,33.1,31.6,30.11,NW,318,0.0,4.0,94,0.00,,---,0.03,VWS V14.01,2013-03-27 00:40:00,
2013-03-26 20:45:00,33.0,31.5,30.11,WNW,298,4.0,4.0,94,0.00,,---,0.03,VWS V14.01,2013-03-27 00:45:00,
2013-03-26 20:50:00,33.0,31.5,30.11,WNW,298,0.0,4.0,94,0.00,,---,0.03,VWS V14.01,2013-03-27 00:50:00,
2013-03-26 20:55:00,33.0,31.5,30.11,NW,309,0.0,4.0,94,0.00,,---,0.03,VWS V14.01,2013-03-27 00:55:00,
2013-03-26 21:00:00,33.0,31.5,30.11,NNW,330,2.0,4.0,94,0.00,,---,0.03,VWS V14.01,2013-03-27 01:00:00,
2013-03-26 21:05:00,32.9,31.4,30.11,NW,317,0.0,4.0,94,0.00,,---,0.03,VWS V14.01,2013-03-27 01:05:00,
2013-03-26 21:10:00,32.9,31.6,30.11,NW,317,0.0,4.0,95,0.00,,---,0.03,VWS V14.01,2013-03-27 01:10:00,
2013-03-26 21:15:00,32.9,31.4,30.11,NW,317,0.0,4.0,94,0.00,,---,0.03,VWS V14.01,2013-03-27 01:15:00,
2013-03-26 21:20:00,32.9,31.6,30.11,NW,317,0.0,4.0,95,0.00,,---,0.03,VWS V14.01,2013-03-27 01:20:00,
2013-03-26 21:25:00,32.9,31.6,30.11,NW,317,0.0,4.0,95,0.00,,---,0.03,VWS V14.01,2013-03-27 01:25:00,
2013-03-26 21:30:00,32.9,31.6,30.11,NW,317,0.0,1.0,95,0.00,,---,0.03,VWS V14.01,2013-03-27 01:30:00,
2013-03-26 21:35:00,32.9,31.6,30.12,NW,317,0.0,1.0,95,0.00,,---,0.03,VWS V14.01,2013-03-27 01:35:00,
2013-03-26 21:40:00,32.9,31.6,30.12,NW,317,0.0,1.0,95,0.00,,---,0.03,VWS V14.01,2013-03-27 01:40:00,
2013-03-26 21:45:00,32.9,31.6,30.12,NW,317,0.0,1.0,95,0.00,,---,0.03,VWS V14.01,2013-03-27 01:45:00,
2013-03-26 21:50:00,32.9,31.6,30.12,NW,317,0.0,1.0,95,0.00,,---,0.03,VWS V14.01,2013-03-27 01:50:00,
2013-03-26 21:55:00,32.9,31.6,30.12,NW,317,0.0,1.0,95,0.00,,---,0.03,VWS V14.01,2013-03-27 01:55:00,
2013-03-26 22:00:00,32.9,31.6,30.12,NW,317,0.0,0.0,95,0.00,,---,0.03,VWS V14.01,2013-03-27 02:00:00,
2013-03-26 22:05:00,32.9,31.6,30.12,NW,317,0.0,1.0,95,0.00,,---,0.03,VWS V14.01,2013-03-27 02:05:00,
2013-03-26 22:10:00,33.0,31.7,30.12,NW,317,0.0,1.0,95,0.00,,---,0.03,VWS V14.01,2013-03-27 02:10:00,
2013-03-26 22:15:00,33.0,31.7,30.12,NW,317,0.0,1.0,95,0.00,,---,0.03,VWS V14.01,2013-03-27 02:15:00,
2013-03-26 22:20:00,33.0,31.7,30.12,NW,317,0.0,1.0,95,0.00,,---,0.03,VWS V14.01,2013-03-27 02:20:00,
2013-03-26 22:25:00,33.0,31.7,30.12,NW,317,0.0,1.0,95,0.00,,---,0.03,VWS V14.01,2013-03-27 02:25:00,
2013-03-26 22:30:00,33.0,31.7,30.12,NW,317,0.0,1.0,95,0.00,,---,0.03,VWS V14.01,2013-03-27 02:30:00,
2013-03-26 22:35:00,33.1,31.8,30.12,NW,317,0.0,1.0,95,0.00,,---,0.03,VWS V14.01,2013-03-27 02:35:00,
2013-03-26 22:40:00,33.1,31.8,30.12,NW,317,0.0,1.0,95,0.00,,---,0.03,VWS V14.01,2013-03-27 02:40:00,
2013-03-26 22:45:00,33.0,31.7,30.12,NW,317,0.0,1.0,95,0.00,,---,0.03,VWS V14.01,2013-03-27 02:45:00,
2013-03-26 22:50:00,33.1,31.8,30.12,NW,317,0.0,1.0,95,0.00,,---,0.03,VWS V14.01,2013-03-27 02:50:00,
2013-03-26 22:55:00,33.1,31.8,30.12,NW,317,0.0,2.0,95,0.00,,---,0.03,VWS V14.01,2013-03-27 02:55:00,
2013-03-26 23:00:00,33.0,31.7,30.12,NW,317,0.0,0.0,95,0.00,,---,0.03,VWS V14.01,2013-03-27 03:00:00,
2013-03-26 23:05:00,33.0,31.7,30.12,NW,317,0.0,2.0,95,0.00,,---,0.03,VWS V14.01,2013-03-27 03:05:00,
2013-03-26 23:10:00,33.0,31.7,30.12,WNW,288,0.0,2.0,95,0.00,,---,0.03,VWS V14.01,2013-03-27 03:10:00,
2013-03-26 23:15:00,33.0,31.7,30.12,NNW,330,0.0,2.0,95,0.00,,---,0.03,VWS V14.01,2013-03-27 03:15:00,
2013-03-26 23:20:00,33.0,31.7,30.12,NW,318,2.0,2.0,95,0.00,,---,0.03,VWS V14.01,2013-03-27 03:20:00,
2013-03-26 23:25:00,33.0,31.7,30.13,NNW,340,0.0,2.0,95,0.00,,---,0.03,VWS V14.01,2013-03-27 03:25:00,
2013-03-26 23:30:00,33.0,31.7,30.12,NNW,332,0.0,2.0,95,0.00,,---,0.03,VWS V14.01,2013-03-27 03:30:00,
2013-03-26 23:35:00,32.9,31.6,30.12,NNW,332,0.0,2.0,95,0.00,,---,0.03,VWS V14.01,2013-03-27 03:35:00,
2013-03-26 23:40:00,32.9,31.6,30.12,NW,321,0.0,4.0,95,0.00,,---,0.03,VWS V14.01,2013-03-27 03:40:00,
2013-03-26 23:45:00,32.9,31.6,30.13,NW,321,0.0,4.0,95,0.00,,---,0.03,VWS V14.01,2013-03-27 03:45:00,
2013-03-26 23:50:00,32.9,31.6,30.13,NW,309,0.0,4.0,95,0.00,,---,0.03,VWS V14.01,2013-03-27 03:50:00,
2013-03-26 23:55:00,32.9,31.6,30.13,NW,309,0.0,4.0,95,0.00,,---,0.03,VWS V14.01,2013-03-27 03:55:00,